Simultaneous Nadir Overpasses (SNOs) Predictions

Prediction of SNOs between AQUA and METOP-B Satellite Orbit:

Table of predicted SNOs for the next 14.0 days since TLE Epoch: 8/14/2015
Index Date (AQUA) Time (AQUA) Lat,Lon (AQUA) SZA (AQUA ) Date (METOP-B) Time (METOP-B) Lat,Lon (METOP-B) SZA (METOP-B ) Distance(km) Time Diff (sec)
1 08/16/2015 16:20:14 73.08, -69.25 59.38 08/16/2015 16:19:08 73.04, -71.90 59.46 85.92 66
2 08/16/2015 17:09:53 -73.77, 96.95 119.87 08/16/2015 17:09:36 -73.76, 97.03 119.89 3.27 17
3 08/16/2015 17:59:21 73.81, -95.50 60.18 08/16/2015 18:00:14 73.83, -95.47 60.19 1.68 53
4 08/19/2015 11:54:35 73.44, -3.55 60.66 08/19/2015 11:53:24 73.39, -4.73 60.67 37.87 71
5 08/19/2015 12:44:07 -73.76, 163.42 118.99 08/19/2015 12:43:59 -73.76, 163.43 118.99 0.60 8
6 08/19/2015 13:33:35 73.81, -29.05 61.07 08/19/2015 13:34:37 73.82, -29.07 61.08 1.98 62
7 08/22/2015 07:28:53 73.71, 62.33 61.87 08/22/2015 07:27:40 73.69, 62.36 61.86 2.37 73
8 08/22/2015 08:18:20 -73.76,-130.14 118.07 08/22/2015 08:18:21 -73.76,-130.17 118.07 0.85 1
9 08/22/2015 09:07:48 73.81, 37.38 62.00 08/22/2015 09:08:59 73.82, 37.32 62.01 2.04 71
10 08/25/2015 03:03:06 73.68, 128.84 62.79 08/25/2015 03:02:03 73.69, 128.75 62.81 3.05 63
11 08/25/2015 03:52:34 -73.77, -63.73 117.11 08/25/2015 03:52:44 -73.75, -63.77 117.12 2.21 10
12 08/25/2015 04:42:06 74.04, 103.32 63.20 08/25/2015 04:43:17 74.06, 104.32 63.18 30.69 71
13 08/27/2015 22:37:20 73.71,-164.79 63.79 08/27/2015 22:36:25 73.73,-164.74 63.82 3.30 55
14 08/27/2015 23:26:48 -73.80, 2.66 116.11 08/27/2015 23:27:06 -73.80, 2.75 116.10 2.89 18




NCC Satellite Simultaneous Nadir Overpasses (SNOs) Prediction Service
